• In Netherlands
  • List of Countries
  • For 7 days
  • Water Temperature
  • Satellite Maps
  • Weather Map
  • Weather Widgets
  • user-avatar
    Login

    Hourly Weather Kitzbuhel

    Today, 21 August, Monday

    Time Temperature Precipitation Wind Pressure Humidity
    00:00 +9°C° 0 mm 1 mps 681 mmHg 92%
    01:00 +9°C° 0 mm 1 mps 681 mmHg 92%
    02:00 +9°C° 0 mm 1 mps 681 mmHg 92%
    03:00 +9°C° 0 mm 1 mps 681 mmHg 92%
    04:00 +9°C° 0 mm 1 mps 681 mmHg 93%
    05:00 +10°C° 0 mm 1 mps 681 mmHg 90%
    06:00 +11°C° 0 mm 1 mps 682 mmHg 88%
    07:00 +11°C° 0 mm 1 mps 682 mmHg 85%
    08:00 +13°C° 0 mm 1 mps 682 mmHg 76%
    09:00 +15°C° 0 mm 1 mps 682 mmHg 67%
    10:00 +17°C° 0 mm 2 mps 682 mmHg 57%
    11:00 +17°C° 0 mm 2 mps 682 mmHg 54%
    12:00 +18°C° 0 mm 2 mps 682 mmHg 51%
    13:00 +19°C° 0 mm 2 mps 682 mmHg 47%
    14:00 +19°C° 0 mm 2 mps 682 mmHg 49%
    15:00 +19°C° 0 mm 2 mps 682 mmHg 51%
    16:00 +18°C° 0 mm 2 mps 682 mmHg 53%
    17:00 +16°C° 0 mm 2 mps 681 mmHg 64%
    18:00 +15°C° 0 mm 1 mps 681 mmHg 74%
    19:00 +13°C° 0 mm 1 mps 681 mmHg 85%
    20:00 +12°C° 0 mm 1 mps 681 mmHg 88%
    21:00 +11°C° 0 mm 1 mps 681 mmHg 90%
    22:00 +10°C° 0 mm 1 mps 681 mmHg 93%
    23:00 +10°C° 0 mm 1 mps 681 mmHg 93%

    Tomorrow, 22 August, Tuesday

    Time Temperature Precipitation Wind Pressure Humidity
    00:00 +9°C° 0 mm 1 mps 681 mmHg 93%
    01:00 +9°C° 0 mm 1 mps 681 mmHg 93%
    02:00 +9°C° 0 mm 1 mps 681 mmHg 92%
    03:00 +9°C° 0 mm 1 mps 681 mmHg 92%
    04:00 +9°C° 0 mm 1 mps 681 mmHg 91%
    05:00 +10°C° 0 mm 1 mps 681 mmHg 87%
    06:00 +11°C° 0 mm 1 mps 681 mmHg 82%
    07:00 +13°C° 0 mm 1 mps 681 mmHg 78%
    08:00 +15°C° 0 mm 1 mps 682 mmHg 70%
    09:00 +18°C° 0 mm 1 mps 682 mmHg 61%
    10:00 +21°C° 0 mm 1 mps 682 mmHg 53%
    11:00 +22°C° 0 mm 1 mps 682 mmHg 51%
    12:00 +22°C° 0 mm 1 mps 682 mmHg 48%
    13:00 +23°C° 0 mm 2 mps 681 mmHg 46%
    14:00 +23°C° 0 mm 2 mps 681 mmHg 49%
    15:00 +21°C° 0 mm 2 mps 681 mmHg 52%
    16:00 +21°C° 0 mm 2 mps 680 mmHg 55%
    17:00 +19°C° 0 mm 2 mps 680 mmHg 66%
    18:00 +18°C° 0 mm 1 mps 679 mmHg 77%
    19:00 +14°C° 0 mm 1 mps 679 mmHg 88%
    20:00 +14°C° 0 mm 1 mps 679 mmHg 90%
    21:00 +13°C° 0 mm 1 mps 679 mmHg 92%
    22:00 +12°C° 0 mm 1 mps 679 mmHg 94%
    23:00 +12°C° 0 mm 1 mps 679 mmHg 94%

    Day after tomorrow, 23 August, Wednesday

    Time Temperature Precipitation Wind Pressure Humidity
    00:00 +11°C° 0 mm 1 mps 679 mmHg 94%
    01:00 +11°C° 0 mm 1 mps 679 mmHg 94%
    02:00 +11°C° 0 mm 1 mps 679 mmHg 93%
    03:00 +11°C° 0 mm 1 mps 679 mmHg 92%
    04:00 +11°C° 0 mm 1 mps 678 mmHg 92%
    05:00 +12°C° 0 mm 1 mps 679 mmHg 88%
    06:00 +13°C° 0 mm 1 mps 679 mmHg 84%
    07:00 +14°C° 0 mm 1 mps 680 mmHg 80%
    08:00 +18°C° 0 mm 1 mps 680 mmHg 70%
    09:00 +21°C° 0 mm 1 mps 681 mmHg 60%
    10:00 +23°C° 0 mm 1 mps 681 mmHg 50%
    11:00 +24°C° 0 mm 1 mps 681 mmHg 48%
    12:00 +25°C° 0 mm 1 mps 681 mmHg 46%
    13:00 +26°C° 0 mm 1 mps 681 mmHg 44%
    14:00 +25°C° 0.1 mm 1 mps 681 mmHg 46%
    15:00 +25°C° 0.1 mm 2 mps 680 mmHg 49%
    16:00 +25°C° 0.1 mm 2 mps 680 mmHg 52%
    17:00 +22°C° 0.5 mm 1 mps 680 mmHg 64%
    18:00 +20°C° 0.5 mm 1 mps 680 mmHg 75%
    19:00 +18°C° 0.5 mm 1 mps 679 mmHg 87%
    20:00 +16°C° 0.1 mm 1 mps 679 mmHg 87%
    21:00 +15°C° 0.1 mm 1 mps 680 mmHg 88%
    22:00 +14°C° 0.1 mm 1 mps 680 mmHg 88%
    23:00 +14°C° 0 mm 1 mps 680 mmHg 87%

    24 August, Thursday

    Time Temperature Precipitation Wind Pressure Humidity
    00:00 +14°C° 0 mm 1 mps 680 mmHg 85%
    01:00 +14°C° 0 mm 1 mps 679 mmHg 83%
    02:00 +13°C° 0 mm 1 mps 679 mmHg 81%
    03:00 +13°C° 0 mm 1 mps 679 mmHg 79%
    04:00 +13°C° 0 mm 1 mps 679 mmHg 77%
    05:00 +14°C° 0 mm 1 mps 679 mmHg 74%
    06:00 +16°C° 0 mm 1 mps 680 mmHg 70%
    07:00 +18°C° 0 mm 1 mps 680 mmHg 67%
    08:00 +21°C° 0 mm 1 mps 681 mmHg 58%
    09:00 +22°C° 0 mm 0 mps 681 mmHg 49%
    10:00 +25°C° 0 mm 0 mps 682 mmHg 41%
    11:00 +27°C° 0 mm 1 mps 682 mmHg 40%
    12:00 +27°C° 0 mm 1 mps 682 mmHg 40%
    13:00 +28°C° 0 mm 1 mps 682 mmHg 39%
    14:00 +27°C° 0.1 mm 1 mps 681 mmHg 46%
    15:00 +26°C° 0.1 mm 2 mps 681 mmHg 52%
    16:00 +25°C° 0.1 mm 2 mps 681 mmHg 59%
    17:00 +23°C° 0.6 mm 1 mps 681 mmHg 68%
    18:00 +21°C° 0.6 mm 1 mps 680 mmHg 77%
    19:00 +19°C° 0.6 mm 1 mps 680 mmHg 86%
    20:00 +19°C° 0.2 mm 1 mps 680 mmHg 86%
    21:00 +18°C° 0.2 mm 1 mps 680 mmHg 87%
    22:00 +16°C° 0.2 mm 1 mps 680 mmHg 87%
    23:00 +16°C° 0 mm 1 mps 680 mmHg 86%

    25 August, Friday

    Time Temperature Precipitation Wind Pressure Humidity
    00:00 +15°C° 0 mm 2 mps 680 mmHg 85%
    01:00 +15°C° 0 mm 2 mps 680 mmHg 83%
    02:00 +15°C° 0 mm 2 mps 680 mmHg 81%
    03:00 +14°C° 0 mm 2 mps 679 mmHg 80%
    04:00 +14°C° 0 mm 2 mps 679 mmHg 78%
    05:00 +15°C° 0 mm 1 mps 680 mmHg 76%
    06:00 +16°C° 0 mm 1 mps 680 mmHg 74%
    07:00 +18°C° 0 mm 1 mps 680 mmHg 72%
    08:00 +21°C° 0 mm 1 mps 681 mmHg 63%
    09:00 +24°C° 0 mm 1 mps 681 mmHg 54%
    10:00 +27°C° 0 mm 1 mps 681 mmHg 44%
    11:00 +28°C° 0 mm 1 mps 681 mmHg 43%
    12:00 +29°C° 0 mm 1 mps 681 mmHg 41%
    13:00 +29°C° 0 mm 2 mps 681 mmHg 40%
    14:00 +29°C° 0.1 mm 2 mps 681 mmHg 43%
    15:00 +29°C° 0.1 mm 2 mps 681 mmHg 47%
    16:00 +28°C° 0.1 mm 2 mps 680 mmHg 50%
    17:00 +25°C° 0.8 mm 2 mps 680 mmHg 62%
    18:00 +23°C° 0.8 mm 2 mps 680 mmHg 75%
    19:00 +19°C° 0.8 mm 2 mps 680 mmHg 88%
    20:00 +20°C° 1 mm 1 mps 680 mmHg 90%
    21:00 +19°C° 1 mm 1 mps 680 mmHg 92%
    22:00 +18°C° 1 mm 1 mps 680 mmHg 94%
    23:00 +18°C° 0 mm 1 mps 680 mmHg 94%

    26 August, Saturday

    Time Temperature Precipitation Wind Pressure Humidity
    00:00 +16°C° 0 mm 1 mps 680 mmHg 94%
    01:00 +16°C° 0 mm 1 mps 680 mmHg 93%
    02:00 +16°C° 0 mm 1 mps 679 mmHg 92%
    03:00 +16°C° 0 mm 1 mps 679 mmHg 91%
    04:00 +15°C° 0 mm 1 mps 679 mmHg 89%
    05:00 +16°C° 0 mm 1 mps 679 mmHg 86%
    06:00 +18°C° 0 mm 1 mps 679 mmHg 84%
    07:00 +19°C° 0 mm 1 mps 680 mmHg 81%
    08:00 +22°C° 0 mm 1 mps 680 mmHg 69%
    09:00 +25°C° 0 mm 1 mps 681 mmHg 58%
    10:00 +28°C° 0 mm 1 mps 681 mmHg 46%
    11:00 +28°C° 0 mm 1 mps 681 mmHg 44%
    12:00 +29°C° 0 mm 2 mps 681 mmHg 43%
    13:00 +30°C° 0 mm 2 mps 681 mmHg 41%
    14:00 +29°C° 0.2 mm 2 mps 681 mmHg 45%
    15:00 +29°C° 0.2 mm 2 mps 680 mmHg 49%
    16:00 +28°C° 0.2 mm 2 mps 680 mmHg 52%
    17:00 +26°C° 0.2 mm 2 mps 680 mmHg 63%
    18:00 +24°C° 0.2 mm 1 mps 679 mmHg 73%
    19:00 +22°C° 0.2 mm 1 mps 679 mmHg 83%
    20:00 +21°C° 0.1 mm 1 mps 679 mmHg 83%
    21:00 +19°C° 0.1 mm 2 mps 679 mmHg 84%
    22:00 +18°C° 0.1 mm 2 mps 679 mmHg 84%
    23:00 +18°C° 0.1 mm 2 mps 679 mmHg 84%
    Show more